Flag for Brazil Weather past 2 weeks in Porto Alegre, Rio Grande do Sul, Brazil

Now
75 °F

Clear.


Feels Like: 75 °F
Forecast: 70 / 92 °F
Wind: 8 mph from North

Location: Porto Alegre Aero-Porto

Current Time: Jan 26, 2015 at 6:57:40 AM

Latest Report: Jan 26, 2015 at 6:00 AM


Visibility: 10 mi

Pressure: 29.83 "Hg

Humidity: 89%

Dew point: 72 °F

Location of Porto AlegreLocation

Historic Weather in Porto Alegre — Graph

°F

Porto Alegre temperature yesterday

Maximum temperature yesterday: 90 °F (at 3:00 PM)
Minimum temperature yesterday: 70 °F (at 7:00 AM)
Average temperature yesterday: 81 °F

Past Weeks' High & Low Weather Summary

 TemperatureHumidityPressure
High95 °F (Jan 13, 3:00 PM)100% (Jan 14, 3:00 AM)30.18 "Hg (Jan 14, 3:00 AM)
Low37 °F (Jan 14, 6:00 PM)43% (Jan 25, 6:00 PM)29.74 "Hg (Jan 13, 5:00 PM)
Average78 °F77%29.93 "Hg
* Reported Jan 11 5:00 AM — Jan 26 5:00 AM, Porto Alegre, Weather by CustomWeather, © 2014

Note: Actual official high and low records may vary slightly from our data, if they occured in-between our weather recording intervals... More about our weather records

Advertising

Porto Alegre weather history for previous 24 hours

 ConditionsComfort  
Time TempWeatherWind HumidityBarometerVisibility
5:00 AM
Jan 26
75 °FClear.3 mph94%29.80 "Hg10 mi
4:00 AM75 °FClear.3 mph89%29.83 "Hg10 mi
3:00 AM75 °FClear.No wind83%29.83 "Hg10 mi
2:00 AM79 °FClear.3 mph74%29.83 "Hg10 mi
1:00 AM77 °FClear.5 mph79%29.83 "Hg10 mi
12:00 AM79 °FClear.8 mph79%29.86 "Hg10 mi
11:00 PM
Jan 25
79 °FClear.8 mph74%29.83 "Hg10 mi
10:00 PM81 °FClear.6 mph70%29.83 "Hg10 mi
9:00 PM84 °FPassing clouds.7 mph62%29.80 "HgN/A
8:00 PM88 °FPassing clouds.3 mph49%29.80 "HgN/A
7:00 PM90 °FPassing clouds.6 mph46%29.77 "HgN/A
6:00 PM90 °FPassing clouds.10 mph43%29.77 "HgN/A
5:00 PM90 °FPassing clouds.6 mph49%29.80 "HgN/A
4:00 PM90 °FPassing clouds.6 mph49%29.80 "HgN/A
3:00 PM90 °FSunny.9 mph46%29.83 "Hg10 mi
2:00 PM88 °FPassing clouds.5 mph46%29.83 "HgN/A
1:00 PM86 °FPassing clouds.8 mph52%29.83 "HgN/A
12:00 PM84 °FSunny.7 mph58%29.86 "Hg10 mi
11:00 AM82 °FSunny.8 mph62%29.86 "Hg10 mi
10:00 AM79 °FPassing clouds.9 mph70%29.89 "HgN/A
9:00 AM77 °FPassing clouds.6 mph74%29.86 "HgN/A
8:00 AM73 °FPassing clouds.3 mph83%29.86 "HgN/A
7:00 AM70 °FSunny.5 mph94%29.83 "Hg10 mi
6:00 AM72 °FClear.3 mph88%29.83 "Hg10 mi
Weather by CustomWeather, © 2014

See weather overviewHow to use our weather pages